#timestamp,LO_Frequency,Hit,StdDev 
1638867615.7,286047001.1,N
1638867635.5,286046999.7,N
1638867655.4,286047001.9,N
1638867675.2,286047002.0,N
1638867695.0,286047000.0,N
1638867695.9,286047000.0,N
1638867715.8,286047000.0,N
1638867735.6,286047000.2,N
1638867755.4,286047000.6,N
1638867775.3,286047000.2,N
1638867795.1,286047000.8,N
1638867815.9,286047001.0,N
1638867835.7,286047000.6,N
1638867855.5,286047001.1,N
1638867875.4,286047001.0,N
1638867895.2,286047000.4,N
1638867915.1,286047000.6,N
1638867916.0,286047000.6,N
1638867935.8,286047001.0,N
1638867955.7,286047002.8,Y
1638867975.5,286046999.3,P
1638867995.3,286046996.6,P
1638868015.2,286046996.5,N
1638868035.0,286046998.5,N
1638868035.9,286046998.5,N
1638868055.7,286046998.1,N
1638868075.6,286046998.3,N
1638868095.4,286046999.6,N
1638868115.3,286046996.9,N
1638868135.1,286046997.6,N
1638868136.0,286046997.6,N
1638868155.8,286046997.0,N
1638868175.7,286046996.7,N
1638868195.5,286046999.2,N
1638868215.3,286046999.5,N
1638868235.2,286046996.6,N
1638868255.0,286046996.6,N
1638868255.9,286046996.6,N
1638868275.8,286046999.2,N
1638868295.6,286046999.3,N
1638868315.4,286047000.5,N
1638868335.3,286047000.0,N
1638868355.1,286046998.2,N
1638868375.9,286046999.0,N
1638868395.7,286046998.9,N
1638868415.5,286047000.9,N
1638868435.4,286047000.2,N
1638868455.2,286047000.4,N
1638868475.0,286047000.2,N
1638868475.9,286047000.2,N
1638868495.8,286047001.1,N
1638868515.6,286047000.9,N
1638868535.5,286046998.7,N
1638868555.3,286046999.5,N
1638868575.1,286046999.4,N
1638868595.9,286046998.3,N
1638868615.7,286046998.2,N
1638868635.5,286046998.4,N
1638868655.4,286046998.1,N
1638868675.2,286046999.1,N
1638868695.1,286046996.6,N
1638868696.0,286046996.6,N
1638868715.8,286046999.5,N
1638868735.6,286046999.5,N
1638868755.5,286046998.9,N
1638868775.3,286046999.3,N
1638868795.2,286046998.8,N
1638868815.9,286046999.6,N
1638868835.7,286046999.3,N
1638868855.6,286046998.8,N
1638868875.4,286047000.4,N
1638868895.2,286046998.1,N
1638868915.1,286046999.0,N
1638868916.0,286046999.0,N
1638868935.8,286047001.1,N
1638868955.7,286046996.5,Y
1638868975.5,286046998.8,P
1638868995.3,286046998.7,P
1638869015.2,286046999.4,N
1638869035.0,286046997.3,Y
1638869035.9,286046997.3,P
1638869055.8,286046999.0,N
1638869075.6,286046998.6,N
1638869095.4,286047000.8,N
1638869115.3,286047000.6,N
1638869135.1,286047001.2,N
1638869155.8,286046998.7,N
1638869175.7,286047000.9,N
1638869195.5,286047002.4,N
1638869215.4,286046999.7,N
1638869235.2,286046999.8,N
1638869255.0,286046999.8,N
1638869255.9,286046999.8,N
1638869275.8,286047000.5,N
1638869295.6,286047001.2,N
1638869315.4,286047000.8,N
1638869335.3,286047001.1,N
1638869355.1,286046998.1,N
1638869375.9,286047000.6,N
1638869395.7,286047002.7,N
1638869415.5,286047002.5,N
1638869435.4,286047002.8,N
1638869455.2,286047001.9,N
1638869475.0,286047001.4,N
1638869475.9,286047001.4,N
1638869495.8,286047002.0,N
1638869515.6,286047001.3,N
1638869535.5,286047003.6,N
1638869555.3,286047004.0,N
1638869575.1,286047001.8,N
1638869595.9,286046999.7,N
1638869615.7,286047001.8,N
1638869635.5,286047001.6,N
1638869655.4,286047004.2,Y
1638869675.2,286047002.0,P
1638869695.1,286047002.5,P
1638869696.0,286047002.5,P
1638869715.8,286047002.3,Y
1638869735.6,286047001.1,P
1638869755.5,286047000.8,N
1638869775.3,286047000.0,N
1638869795.1,286047002.7,Y
1638869815.9,286046998.5,P
1638869835.7,286046996.9,N
1638869855.6,286046997.2,N
1638869875.4,286046996.5,N
1638869895.2,286046996.6,N
1638869915.1,286046998.7,N
1638869916.0,286046998.7,N
1638869935.8,286046999.1,N
1638869955.6,286046996.6,N
1638869975.5,286046996.9,N
1638869995.3,286046998.4,N
1638870015.2,286046999.1,N
1638870035.9,286046998.3,N
1638870055.7,286046998.6,N
1638870075.6,286046998.1,N
1638870095.4,286046998.2,N
1638870115.2,286046998.1,N
1638870135.1,286046999.5,N
1638870136.0,286046999.5,N
1638870155.8,286046997.1,N
1638870175.7,286046999.4,N
1638870195.5,286046996.5,Y
1638870215.3,286047000.9,P
1638870235.2,286046998.7,N
1638870255.0,286046998.4,N
1638870255.9,286046998.4,N
1638870275.8,286047001.2,N
1638870295.6,286046998.6,N
1638870315.4,286046998.8,N
1638870335.3,286047000.8,N
1638870355.1,286047001.2,N
1638870375.8,286047000.7,N
1638870395.7,286047000.4,N
1638870415.5,286047000.9,N
1638870435.4,286047000.7,N
1638870455.2,286047001.2,N
1638870475.0,286046998.5,N
1638870475.9,286046998.5,N
1638870495.8,286047001.1,N
1638870515.6,286047001.1,N
1638870535.4,286047000.7,N
1638870555.3,286046998.3,N
1638870575.1,286046999.9,N
1638870595.9,286047000.9,N
1638870615.7,286046999.8,N
1638870635.5,286047002.2,N
1638870655.4,286047002.0,N
1638870675.2,286047002.7,N
1638870695.0,286047000.1,N
1638870695.9,286047000.1,N
1638870715.8,286046999.8,N
1638870735.6,286046998.5,N
1638870755.5,286047000.2,N
1638870775.3,286047000.3,N
1638870795.1,286047000.5,N
1638870815.9,286047001.1,N
1638870835.7,286047000.8,N
1638870855.5,286047000.7,N
1638870875.4,286046998.1,N
1638870895.2,286046998.4,N
1638870915.1,286047000.7,N
1638870916.0,286047000.7,N
1638870935.8,286047001.1,N
1638870955.6,286047000.3,N
1638870975.5,286046999.6,N
1638870995.3,286046997.0,N
1638871015.2,286046997.6,N
1638871035.9,286046997.0,N
1638871055.7,286046996.7,N
1638871075.6,286046996.9,N
1638871095.4,286046997.0,N
1638871115.2,286046997.1,N
1638871135.1,286046996.3,N
1638871136.0,286046996.3,N
1638871155.8,286046996.0,N
1638871175.7,286046998.0,N
1638871195.5,286046997.3,N
